Terminal Aerodrome Forecast
Issued by NWS

Home | Current Version | Previous Version | Text Only | Print | Product List | Glossary On
Versions: 1 2 3 4 5 6 7 8 9 10 11 12 13 14 15 16 17 18
000
FTAK31 PAJN 231100
TAFAGY
TAF
PAGY 231126Z 2312/2412 VRB03KT P6SM VCSH FEW015 BKN030 OVC050
     FM231900 VRB05KT P6SM SCT080
     FM240300 03009KT P6SM SCT100
      AMD LTD TO CLD VIS AND WIND=

USA.gov is the U.S. government's official web portal to all federal, state and local government web resources and services.